Regional Weather Roundup
Issued by NWS

Home | Current Version | Previous Version | Text Only | Print | Product List | Glossary On
Versions: 1 2 3 4 5 6 7 8 9 10 11 12 13 14 15 16 17 18 19 20 21 22 23 24 25 26 27 28 29 30 31 32 33 34 35 36 37 38 39 40 41 42 43 44 45 46 47 48 49 50
000
ASUS45 KBOU 221110
RWRCO

WEATHER ROUNDUP FOR COLORADO
NATIONAL WEATHER SERVICE DENVER/BOULDER CO
500 AM MDT MON OCT 22 2018

NOTE: "FAIR" INDICATES FEW OR NO CLOUDS BELOW 12000 FEET WITH NO
SIGNIFICANT WEATHER AND/OR OBSTRUCTIONS TO VISIBILITY.

COZ001>005-013-030-031-221200-
...NORTHWEST COLORADO...

CITY           SKY/WX    TMP DP  RH WIND       PRES   REMARKS
CRAIG          FAIR      31  29  92 CALM      30.23F
HAYDEN         FAIR      40  33  76 E12       30.25S
MEEKER         FAIR      35  30  82 CALM      30.23S
RANGELY        FAIR      37  35  93 CALM      30.18F
RABBIT EARS PA FAIR      37  32  81 CALM      30.40S
STEAMBOAT SPGS FAIR      35  32  87 CALM      30.26S
WALDEN         NOT AVBL
$$

COZ006>008-011-221200-
...WEST CENTRAL VALLEYS...

CITY           SKY/WX    TMP DP  RH WIND       PRES   REMARKS
GRAND JUNCTION FAIR      45  37  73 SE9       30.15S
MONTROSE       FAIR      41  33  73 S7        30.22F
EAGLE          FAIR      34  28  79 CALM      30.30S
RIFLE          FAIR      40  35  83 CALM      30.21S
DELTA          FAIR      44  34  66 E6        30.20S
NUCLA          FAIR      43  34  70 E7        30.22F
$$

COZ017>023-064>068-221200-
...SOUTHWEST COLORADO...

CITY           SKY/WX    TMP DP  RH WIND       PRES   REMARKS
DURANGO        FAIR      40  35  83 CALM      30.22S
CORTEZ         FAIR      40  33  76 E6        30.19F
PAGOSA SPRINGS FAIR      37  31  78 CALM      30.28F
TELLURIDE      FAIR      39  30  70 SE5       30.33F
WOLF CREEK PAS FAIR      32  23  69 N3        30.50S
$$

COZ009-010-012-014-032>034-037-058>063-221200-
...CENTRAL COLORADO...

CITY           SKY/WX    TMP DP  RH WIND       PRES   REMARKS
ASPEN          FAIR      36  28  73 SW6       30.28S
BUENA VISTA    FAIR      33  26  74 NW6       30.32S WCI  28
COPPER MTN     FAIR      37  27  65 SW8       30.46S
BERTHOUD PASS  FAIR      30  14  51 W15       30.48R WCI  19
COTTONWOOD PAS FAIR      43  25  49 W3        30.37S
GUNNISON       FAIR      27  22  81 NE3       30.33R
GRANBY         FAIR      28  25  89 CALM      30.34S
KREMMLING      FAIR      30  28  93 CALM      30.33S
LEADVILLE      FAIR      23  21  92 N3        30.37S
MONARCH PASS   FAIR      34  21  60 CALM      30.56S
SALIDA         FAIR      38  27  65 W5        30.38S
SUNLIGHT       FAIR      36  27  69 SW5       30.43S
WILKERSON PASS FAIR      36  16  44 SW5       30.47R
$$

COZ069>075-221200-
...SAN LUIS VALLEY/SANGRE DE CRISTO MOUNTAINS...

CITY           SKY/WX    TMP DP  RH WIND       PRES   REMARKS
ALAMOSA        FAIR      29  21  72 SW7       30.29R WCI  22
DEL NORTE      FAIR      34  21  58 W9        30.31F WCI  27
LA VETA PASS   NOT AVBL
SAGUACHE       FAIR      34  23  64 CALM      30.31S
$$

COZ035-036-038>040-221200-
...NORTHERN COLORADO FRONT RANGE...

CITY           SKY/WX    TMP DP  RH WIND       PRES   REMARKS
DENVER INTL AP FAIR      46  28  49 SW12      30.14F
AURORA         PTCLDY    44  27  52 S10       30.18S
FRONT RANGE AP FAIR      50  29  44 SW12      30.18R
ERIE MUNI ARPT FAIR      35  32  87 CALM      30.22R
BOULDER MUN AP FAIR      46  32  57 CALM      30.16R
CENTENNIAL     FAIR      44  28  53 S9        30.19S
BROOMFIELD     FAIR      50  30  46 W3        30.18S
FORT COLLINS   FAIR      46  33  60 NE5       30.16S
LONGMONT       FAIR      42  33  72 SW3       30.18S
$$

COZ041-046-047-076>085-087-088-221200-
...PIKES PEAK/PALMER DIVIDE AND SOUTHERN FOOTHILLS...

CITY           SKY/WX    TMP DP  RH WIND       PRES   REMARKS
COLO. SPRINGS  FAIR      43  26  51 N6        30.21S
A. F. ACADEMY  FAIR      36  24  60 N10       30.22S
SCHRIEVER AFB  NOT AVBL
CHEYENNE MTN   MOCLDY    53  20  27 CALM      30.19R
ELLICOTT       NOT AVBL
FALCON         FAIR      40  23  50 NW5       30.24S
FORT CARSON    FAIR      44  26  49 N12       30.18R
LIMON          FAIR      32  28  85 N6        30.18R WCI  26
MONUMENT HILL  FAIR      39  23  52 S7        30.26R
CANON CITY     NOT AVBL
WALSENBURG     NOT AVBL
TRINIDAD       FAIR      44  34  67 W15       30.19S
$$

COZ042>045-048>051-090-091-221200-
...NORTHEAST COLORADO...

CITY           SKY/WX    TMP DP  RH WIND       PRES   REMARKS
GREELEY ARPT   NOT AVBL
AKRON          FAIR      38  32  79 W9        30.13R
BURLINGTON     FAIR      42  32  67 NW8       30.11R
WRAY           FAIR      36  32  87 W6        30.12R
YUMA           FAIR      34  32  93 NW7       30.12R WCI  28
STERLING       FAIR      32  30  93 CALM      30.13R
HOLYOKE        FAIR      41  34  75 NW6       30.12R
FORT MORGAN      N/A     40  30  66 NW3       30.14S
$$

COZ086-089-092>099-221200-
...SOUTHEAST COLORADO...

CITY           SKY/WX    TMP DP  RH WIND       PRES   REMARKS
PUEBLO         FAIR      41  29  62 W5        30.15R
LA JUNTA       FAIR      41  30  65 SW8       30.13R
LAMAR          FAIR      38  34  85 MISG      30.09R
SPRINGFIELD    NOT AVBL
$$



USA.gov is the U.S. government's official web portal to all federal, state and local government web resources and services.